Find Starlink 11204

NORAD ID: 60931 Int'l Des: 2024-155 Owner: SPXS Country: US Constellation: starlink operational
又名: STARLINK-11204 [DTC] celestrak
LEOCIRCULAR

当前视图

正在加载3D地球...

About Starlink 11204

Starlink 11204 (NORAD 60931) is a starlink constellation satellite (v2 mini d2c) launched Aug 31, 2024 by SPXS of US. It operates in LEO, CIRCULAR orbit with a mass of 960.00 kg.

即将过境

Passes for default location (London). Set your location on the main map for personalized predictions.

高度历史

Loading altitude history...

两行轨道根数

1 60931U 24155H 26237.40844689 .00000014 00000-0 49728-5 0 9999
2 60931 53.1577 229.3763 0000723 85.2392 274.8708 15.69708064114909
Epoch: Aug 25, 2026 • Age: 24 hours

当前状态

高度 371.1 km
远地点 / 近地点 N/A
速度 7.69 km/s
星下点 -34.79°S, 67.66°E
发射日期 Aug 31, 2024
运行时间 1.9 years
类型 internet

技术详情

分类 Payload
质量 960.00 kg
干质量 910.00 kg
总质量 960.00 kg
长度 0.30 m
直径 4.10 m
跨度 29.00 m
形状 Box + pan
制造商 SPXS
平台类型 Starlink V2MD
阶段状态 In Orbit
所有者/国家 SPXS/US

Most Searched